Location: Cruquius
(52.3348°N, 4.6319°E)
Time: 08:28:19
(UTC+00:00)

Cosmos 2084 Rocket - Pass Details

Date: 12 May 2021
Orbit: 521 x 659 km, 62.8° (Epoch: 20 June)

Event Time Altitude Azimuth Distance (km) Brightness Sun altitude
Rises 21:58:36 0° 311° (NW) 2,762 8.1 -16.1°
Reaches altitude 10° 22:00:48 10° 309° (NW) 1,884 7.0 -16.2°
Maximum altitude 22:05:01 68° 227° (SW) 640 3.5 -16.5°
Enters shadow 22:06:54 33° 154° (SSE) 1,021 4.1 -16.6°
